GEESAT 3-04

导读

GEESAT 3-04是中国于2024年9月5日8时成功发射的商业卫星,隶属于GEESAT 3系列星座。该卫星聚焦对地观测领域,将依托光学遥感技术,为自然资源监测、农业估产、城市规划、灾害应急等领域提供高精度遥感数据服务,进一步完善我国商业遥感卫星组网能力,推动遥感数据商业化应用发展,助力国家空间基础设施建设。

Basic Information
目录编号:
61014
目录名称:
GEESAT 3-04
国际标识:
2024-159D
轨道中心:
EARTH
卫星名称:
GEESAT 3-04
卫星全名:
GEESAT 3-04
卫星状态:
在轨 (已飞行646 天)
发射日期:
2024-09-05 UTC
国别 :
中国 (CN)
星等 :
--
Orbit Information
数据来源 国际轨道数据 AOE轨道数据
星历时间 2026-06-13T04:49:45+0800
6小时前
查看轨道信息
2026-06-07T18:00:00+0800
5天前
查看轨道信息
半长轴 6997.193km 6997.281km
偏心率 0.0002799 0.0003054
轨道倾角 49.999° 49.998°
近地点辐角 61.209° 37.082°
升交点赤经 14.104° 39.351°
平近点角 298.913° 354.361°
近地点 617.097km 617.007km
远地点 621.015km 621.281km
周期 97.084分钟 97.085分钟
每日圈数 14.832592 14.832311
Detailed Information
使用方式:
暂无
2D Orbit Map
3D Orbit Map
Orbit Altitude Analysis Chart
Orbit Inclination Analysis Chart
Orbit Comprehensive Analysis Chart
View Comprehensive Chart